This is the latest recevied weather packets stored in our database for station/object DG6YGE-6. If no packets are shown the sender has not sent any weather packets the latest 10 day(s).
| Time | Temp. | Humidity | Pressure | Rain* | Wind** | Luminosity | Snow |
|---|---|---|---|---|---|---|---|
| 1777574351 | 16.11° C | 48% | 1026.8 hPa | 0 mm | - | 12 W/m² | - |
| 1777573751 | 16.67° C | 47% | 1026.8 hPa | 0 mm | - | 16 W/m² | - |
| 1777573151 | 16.67° C | 46% | 1026.9 hPa | 0 mm | - | 27 W/m² | - |
| 1777572551 | 17.22° C | 46% | 1026.8 hPa | 0 mm | - | 42 W/m² | - |
| 1777571952 | 17.22° C | 45% | 1026.7 hPa | 0 mm | - | 53 W/m² | - |
| 1777571352 | 17.22° C | 44% | 1026.7 hPa | 0 mm | - | 83 W/m² | - |
| 1777570752 | 17.22° C | 45% | 1026.7 hPa | 0 mm | - | 107 W/m² | - |
| 1777570152 | 17.22° C | 44% | 1026.6 hPa | 0 mm | - | 134 W/m² | - |
| 1777569552 | 17.78° C | 43% | 1026.7 hPa | 0 mm | - | 158 W/m² | - |
| 1777568951 | 17.78° C | 43% | 1026.8 hPa | 0 mm | - | 142 W/m² | - |
| 1777568352 | 17.78° C | 43% | 1026.7 hPa | 0 mm | - | 168 W/m² | - |
| 1777567751 | 17.78° C | 43% | 1026.7 hPa | 0 mm | - | 195 W/m² | - |
| 1777567151 | 17.78° C | 42% | 1026.9 hPa | 0 mm | - | 208 W/m² | - |
| 1777566551 | 17.78° C | 42% | 1027 hPa | 0 mm | - | 205 W/m² | - |
| 1777565952 | 17.78° C | 42% | 1026.9 hPa | 0 mm | - | 201 W/m² | - |
| 1777565351 | 17.78° C | 42% | 1026.8 hPa | 0 mm | - | 277 W/m² | - |
| 1777564752 | 17.78° C | 42% | 1027 hPa | 0 mm | - | 284 W/m² | - |
| 1777564151 | 17.78° C | 41% | 1027 hPa | 0 mm | - | 307 W/m² | - |
| 1777563551 | 17.78° C | 41% | 1027 hPa | 0 mm | - | 367 W/m² | - |
| 1777562951 | 17.78° C | 41% | 1027 hPa | 0 mm | - | 417 W/m² | - |
| 1777562351 | 17.78° C | 41% | 1027.2 hPa | 0 mm | - | 453 W/m² | - |
| 1777561751 | 17.78° C | 40% | 1027.2 hPa | 0 mm | - | 479 W/m² | - |
| 1777561152 | 17.78° C | 42% | 1027.2 hPa | 0 mm | - | 499 W/m² | - |
| 1777560551 | 17.78° C | 40% | 1027.3 hPa | 0 mm | - | 513 W/m² | - |
| 1777559951 | 17.78° C | 40% | 1027.5 hPa | 0 mm | - | 538 W/m² | - |
* Rain latest hour (hover to see other rain measurements)
** Current wind speed in m/s (hover to see current wind gust speed)